Location: Plymouth
(43.7490°N, 87.9770°W)
Time: 17:41:28
(UTC-05:00)

Daily predictions for brighter satellites

Satellite Brightness Start Highest point End
(mag) Time Altitude Azimuth Time Altitude Azimuth Time Altitude Azimuth
Atlas Centaur 2 3.9 20:10:53 10° SSW 20:15:49 23° SSE 20:21:28 10° ESE
Lacrosse 4 Rocket 1.6 20:15:12 10° NNW 20:19:33 86° WSW 20:23:58 10° SSE
Helios 1B rocket 3.1 20:17:06 10° NNE 20:20:50 33° E 20:24:33 10° SSE
Cosmos 2322 Rocket 2.2 20:20:08 10° SSW 20:25:41 70° ESE 20:31:19 10° NNE
ALOS 3.8 20:21:53 10° SSW 20:26:13 38° W 20:30:34 10° NNW
USA 267 3.4 20:20:39 10° NE 20:27:14 84° NW 20:33:48 10° SW
Resurs 01 Rocket 2.1 20:22:54 10° S 20:27:19 66° WSW 20:31:46 10° NNW
H-2A R/B 3.9 20:26:20 10° S 20:30:04 46° W 20:33:48 10° NNW
Cosmos 1869 3.5 20:27:58 10° SSW 20:31:54 77° W 20:35:52 10° N
SAR-Lupe-4 3.8 20:29:04 10° SSE 20:32:33 54° ENE 20:36:06 10° N
COSMOS 2428 4.3 20:30:23 10° SE 20:33:12 14° E 20:36:02 10° ENE
Cosmos 1825 2.1 20:29:35 10° N 20:33:24 80° E 20:37:12 10° S
Cosmos 2360 Rocket 2.9 20:29:17 10° SSE 20:34:14 32° ESE 20:39:13 10° NE
Cosmos 1980 Rocket 3.9 20:29:50 10° SW 20:35:08 39° WNW 20:40:29 10° NNE
OAO 3 Rocket 4.4 20:32:23 10° WSW 20:36:34 29° S 20:40:29 11° SE
Cosmos 1503 Rocket 4.3 20:32:20 10° NNW 20:37:35 71° WSW 20:42:45 10° S
Spot 2 Rocket 4.2 20:35:32 10° S 20:40:32 57° W 20:45:34 10° NNW
Cosmos 1908 Rocket 4.5 20:37:51 10° NNE 20:41:42 30° ENE 20:45:06 12° SE
Sich 1 Rocket 4.5 20:39:16 10° N 20:43:19 32° ENE 20:46:54 12° SE
Cosmos 968 Rocket 4.0 20:39:04 10° N 20:44:01 43° ENE 20:48:27 13° SE
GENESIS II 4.3 20:40:43 10° SW 20:44:46 86° NW 20:48:51 10° NE
ATLAS 5 CENTAUR R/B 2.5 20:41:55 10° NNW 20:47:52 69° NE 20:53:36 13° SE
Cosmos 1408 3.1 20:45:01 10° NNW 20:48:40 61° W 20:52:15 10° S
Cosmos 2322 4.2 20:44:14 10° S 20:49:26 37° ESE 20:54:38 10° NE
SAR-Lupe-1 4.0 20:46:21 10° SSE 20:49:55 77° ENE 20:53:31 10° N
Cosmos 2026 Rocket 4.2 20:47:22 10° NNW 20:53:36 75° W 20:59:42 10° S
Meteor 1-29 2.9 20:51:57 10° NNE 20:55:26 67° ESE 20:58:51 10° S
SL-16 R/B 2.6 20:50:01 10° SSW 20:55:40 71° WNW 21:01:22 10° NNE
Cosmos 1867 3.7 20:51:34 10° NNW 20:57:01 65° NE 21:01:17 17° SE
Cosmos 1733 Rocket 3.3 20:55:05 10° NNW 20:59:33 75° W 21:03:59 10° S
ARGOS 4.3 20:56:22 15° ESE 20:59:44 27° ENE 21:04:13 10° N
Envisat 3.1 20:55:33 10° SSE 21:00:37 84° WSW 21:05:45 10° NNW
H-2A R/B 3.7 20:59:46 12° E 21:02:11 17° ENE 21:05:18 10° NNE
USA 234 3.3 20:56:41 15° ESE 21:02:21 81° NE 21:08:55 10° NW
Okean 2 Rocket 4.3 21:04:23 10° NNE 21:08:12 26° ENE 21:10:03 20° ESE
Cosmos 1933 3.4 21:04:45 10° S 21:08:47 80° W 21:12:50 10° N
Abrixas rocket 3.7 21:06:10 10° WNW 21:09:14 34° N 21:12:17 10° ENE
Cosmos 1862 Rocket 3.8 21:05:31 10° SSW 21:09:58 74° W 21:14:29 10° N
Okean 1-7 4.0 21:08:38 21° SE 21:10:29 28° E 21:14:16 10° NNE
Helios 1A 3.9 21:07:13 10° S 21:11:20 49° W 21:15:29 10° NNW
Cosmos 2333 Rocket 3.9 21:13:24 14° E 21:13:24 14° E 21:15:42 10° ENE
Cosmos 2278 Rocket 4.0 21:10:41 10° N 21:14:24 18° NE 21:17:43 11° E
USA 186 4.3 21:13:48 10° SW 21:15:50 18° W 21:17:58 10° NW
Cosmos 1844 Rocket 3.5 21:11:07 10° N 21:16:12 35° NE 21:19:16 20° ESE
CZ-4B DEB 3.9 21:16:49 10° S 21:19:37 38° W 21:22:30 10° NNW
YAOGAN 6 2.5 21:21:30 22° SSE 21:23:45 88° WSW 21:27:22 10° NNW
ERS-1 Rocket 2.9 21:22:03 19° SSE 21:25:43 81° ENE 21:30:46 10° NNW
MetOp-A 4.2 21:25:29 23° SE 21:28:47 63° ENE 21:34:04 10° N
Milstar 3 4.3 21:23:47 10° WSW 21:28:50 19° SSW 21:31:42 14° S
SeaSat 1 3.2 21:27:56 24° ESE 21:30:18 39° NE 21:34:53 10° NNW
Cosmos 1703 Rocket 3.5 21:27:00 16° S 21:30:30 70° E 21:34:54 10° NNE
Cosmos 1782 3.7 21:36:14 31° E 21:36:19 31° E 21:39:52 10° NNE
Cosmos 2219 Rocket 3.0 21:37:34 27° ESE 21:38:01 28° ESE 21:42:43 10° NE
Meteor 2-10 Rocket 4.0 21:33:50 10° SSW 21:39:39 73° WNW 21:45:26 10° N
Meteor 1-26 Rocket 4.3 21:36:00 10° SSW 21:41:42 82° WNW 21:47:33 10° N
Cosmos 2266 Rocket 4.0 21:36:08 10° N 21:42:27 88° W 21:47:08 20° S
NOSS 3-1 (C) 3.9 21:42:31 30° SE 21:43:46 33° ESE 21:49:20 10° NE
USA 229 DEB 3.6 21:42:13 10° SSW 21:49:03 84° SE 21:56:03 10° NE
YAOGAN 11 4.0 21:47:26 37° SSE 21:49:09 87° ENE 21:53:30 10° NNW
USA 229 3.6 21:42:20 10° SSW 21:49:10 84° SE 21:56:09 10° NE
SPOT 1/Viking Rocket 3.8 21:47:40 35° SE 21:49:33 53° ENE 21:54:38 10° N
Cosmos 2221 Rocket 3.5 21:48:15 27° S 21:50:36 86° E 21:55:03 10° N
SPOT 5 2.7 21:50:39 38° SSE 21:52:29 77° ENE 21:57:06 10° N
Cosmos 1777 Rocket 3.9 21:50:42 10° NNW 21:56:00 89° ENE 21:58:03 39° SSE
Cosmos 2263 Rocket 3.9 21:53:24 10° NW 21:57:54 26° WSW 22:02:24 10° SSW
NOSS 3-1 (A) 4.1 22:00:30 31° ESE 22:00:30 31° ESE 22:05:25 10° NE
ASTEX 1 4.2 22:02:21 34° E 22:02:55 35° ENE 22:07:25 10° NNE
Atlas Centaur 2 3.7 21:58:16 10° WSW 22:04:20 29° S 22:05:12 29° SSE
Cosmos 1633 3.6 22:01:58 10° N 22:04:45 33° NE 22:04:45 33° NE
Cosmos 2237 4.3 22:01:40 10° SSW 22:07:24 78° WNW 22:13:10 10° NNE
Cosmos 1244 Rocket 4.5 22:01:56 10° N 22:08:12 71° E 22:10:33 40° SSE
SL-08 RB Rocket 3.6 22:07:29 53° SSE 22:08:33 86° ENE 22:13:08 10° NNW
H-2A R/B 2.6 22:14:15 43° ENE 22:14:17 43° ENE 22:18:26 10° N
Meteor 1-10 Rocket 4.2 22:12:10 38° S 22:14:29 73° E 22:20:21 10° NNE
MOS 1-B Rocket 3.9 22:12:55 36° S 22:15:28 77° WSW 22:21:06 10° NNW
COSMOS 2428 2.7 22:10:57 10° SSW 22:16:38 84° WNW 22:22:24 10° NNE
Meteor 1-11 Rocket 4.0 22:12:16 10° N 22:17:38 48° ENE 22:18:30 45° ESE
Cosmos 2360 Rocket 3.5 22:12:48 10° SW 22:18:06 40° WNW 22:23:26 10° NNE
Cosmos 1553 Rocket 4.2 22:17:11 44° SE 22:18:30 51° E 22:24:28 10° NNE
CZ-4C R/B 3.2 22:14:24 10° NNW 22:21:17 55° NE 22:24:27 34° ESE
Landsat 7 3.7 22:25:08 67° ESE 22:25:35 74° ENE 22:30:21 10° N
Cosmos 1980 4.1 22:28:48 43° E 22:28:48 43° E 22:33:35 10° NE
Cosmos 1844 3.6 22:22:59 10° NNW 22:28:42 86° WSW 22:29:52 58° SSE
Cosmos 1606 3.0 22:31:23 63° NW 22:31:23 63° NW 22:34:46 10° N
ATLAS 5 CENTAUR R/B 4.0 22:27:24 10° WNW 22:32:15 25° WSW 22:35:10 18° SSW
SL-16 R/B 4.1 22:36:36 16° ENE 22:36:36 16° ENE 22:38:16 10° NE
SL-19 R/B 4.4 22:28:24 10° NNE 22:34:21 56° E 22:34:49 55° ESE
Cosmos 1300 Rocket 4.0 22:32:51 10° N 22:36:30 49° NE 22:36:30 49° NE
Cosmos 1536 4.1 22:34:17 10° N 22:36:59 31° NE 22:36:59 31° NE
ARGOS 4.0 22:37:52 32° SW 22:39:45 43° W 22:44:53 10° NNW
CZ-4B R/B 4.4 22:35:46 10° NNE 22:38:52 31° ENE 22:38:52 31° ENE
Terra 1.7 22:40:43 73° ENE 22:40:43 73° ENE 22:45:29 10° N
H-2A R/B 2.1 22:40:23 57° SW 22:41:08 64° W 22:46:03 10° NNW
USA 234 4.3 22:44:02 26° SSW 22:45:46 30° SW 22:51:24 10° WNW
Abrixas rocket 4.3 22:43:12 10° WNW 22:44:58 27° NW 22:44:58 27° NW
Cosmos 2298 Rocket 4.5 22:42:53 10° N 22:48:04 48° ENE 22:48:12 48° ENE
S3M 3.8 22:47:55 61° S 22:49:03 82° E 22:55:18 10° N
DMSP B5D2-2 3.9 22:44:35 10° NNE 22:49:54 89° ESE 22:50:21 76° S
Spot 4 4.3 22:54:40 52° NE 22:54:40 52° NE 22:58:52 10° N
Cosmos 2237 Rocket 2.1 22:55:50 68° E 22:55:50 68° E 23:01:14 10° NNE
Cosmos 2333 Rocket 2.1 22:55:19 63° SSW 22:56:19 87° WNW 23:02:08 10° NNE
Cosmos 1570 Rocket 4.3 22:57:58 49° WSW 22:59:11 63° WNW 23:04:27 10° NNE
Cosmos 2278 Rocket 2.0 22:53:36 10° NNW 22:59:18 89° WSW 22:59:34 82° SSE
Gbstr 26 Del rocket 4.5 22:59:24 55° SSE 22:59:50 56° SE 23:07:43 10° ENE
Cosmos 1844 Rocket 3.6 22:55:01 10° NW 23:00:05 36° WSW 23:00:56 34° SW
Meteor 2-11 Rocket 4.3 23:06:13 73° S 23:06:53 90° NNW 23:13:01 10° N
CZ-4 R/B 4.1 23:02:22 10° NNE 23:06:24 62° NNE 23:06:24 62° NNE
SeaSat 1 3.7 23:07:43 30° WSW 23:07:52 31° WSW 23:12:13 10° NW
Cosmos 2208 Rocket 4.5 23:07:20 47° WSW 23:08:31 58° WNW 23:13:46 10° NNE
Cosmos 1937 Rocket 3.7 23:04:30 10° NNW 23:09:20 60° NE 23:09:20 60° NE
deb Chang Zheng 4 4.2 23:07:47 10° N 23:11:31 54° NNW 23:11:31 54° NNW
Cosmos 990 Rocket 4.3 23:15:02 10° NNW 23:19:30 57° NNE 23:19:30 57° NNE
Meteor 1-5 Rocket 4.2 23:14:51 10° N 23:20:26 86° NNE 23:20:26 86° NNE
Cosmos 1745 Rocket 4.2 23:14:52 10° NNW 23:21:06 62° W 23:22:00 56° SW
Cosmos 2219 Rocket 3.1 23:19:11 28° WSW 23:21:43 45° WNW 23:27:07 10° NNE
Cosmos 2150 Rocket 4.1 23:17:13 10° NNW 23:22:15 75° N 23:22:15 75° N
Cosmos 2285 Rocket 4.1 23:30:59 61° ENE 23:30:59 61° ENE 23:36:42 10° NNE
Cosmos 1898 Rocket 4.0 23:27:59 10° NNW 23:32:21 54° WNW 23:32:21 54° WNW
NOSS 3-1 (C) 4.3 23:29:43 16° WSW 23:34:20 48° NW 23:40:46 10° NNE
ATLAS CENTAUR R/B 4.0 23:39:05 13° NE 23:39:05 13° NE 23:39:34 10° NE
Okean 1 Rocket 4.4 23:33:58 10° NNW 23:37:05 37° NW 23:37:05 37° NW
Cosmos 1763 Rocket 4.4 23:41:49 42° NE 23:41:49 42° NE 23:45:24 10° NNE
CZ-2C R/B 4.2 23:45:52 34° NE 23:45:52 34° NE 23:49:24 10° N
NOSS 3-1 (A) 4.2 23:47:49 30° WSW 23:50:28 50° NW 23:56:57 10° NNE
H-2A R/B 4.4 23:51:22 17° WNW 23:51:22 17° WNW 23:53:29 10° NW
ATLAS 2AS CENTAUR R/B 3.2 23:52:15 53° E 23:52:15 53° E 23:59:21 10° NE
Cosmos 2297 4.0 23:48:36 10° NNW 23:53:26 60° WNW 23:53:26 60° WNW
Cosmos 2369 Rocket 3.8 23:50:25 10° N 23:54:54 24° NE 23:55:45 23° ENE
